Regional Weather Roundup
Issued by NWS

Home | Current Version | Previous Version | Graphics & Text | Print | Product List | Glossary Off
Versions: 1 2 3 4 5 6 7 8 9 10 11 12 13 14 15 16 17 18 19 20 21 22 23 24 25 26 27 28 29 30 31 32 33 34 35 36 37 38 39 40 41 42 43 44 45 46 47 48 49 50

000
ASUS43 KLSX 050659
RWRMO

WEATHER SUMMARY FOR MISSOURI
NATIONAL WEATHER SERVICE SPRINGFIELD MO
200 AM CDT SUN JUL 05 2015

NOTE: "FAIR" INDICATES FEW OR NO CLOUDS BELOW 12,000 FEET WITH NO
       SIGNIFICANT WEATHER AND/OR OBSTRUCTIONS TO VISIBILITY.
       CURRENT SKY AND/OR WEATHER CONDITIONS ARE NOT AVAILABLE FOR
       CHILLICOTHE AND FARMINGTON.

MOZ001>031-035>038-043-044-053-054-050800-
...NORTHERN AND WESTERN MISSOURI...

CITY           SKY/WX    TMP DP  RH WIND       PRES   REMARKS
KANSAS CTY INT FAIR      68  64  87 S9        30.00F FOG
KANSAS C DTWN  FAIR      74  64  71 SE6       30.00S
LEE`S SUMMIT   FAIR      70  64  81 VRB3      30.02S HAZE
ST JOSEPH      FAIR      69  64  84 CALM      30.00S
CHILLICOTHE      N/A     66  64  93 CALM      30.03S
KIRKSVILLE     FAIR      62  60  93 CALM      30.05R FOG

$$
MOZ066>068-077>081-088>096-101>105-050800-
...SOUTHWEST MISSOURI...

CITY           SKY/WX    TMP DP  RH WIND       PRES   REMARKS
SPRINGFIELD    FAIR      72  68  87 SE6       30.03R
JOPLIN         FAIR      72  68  87 SE5       30.00S

$$
MOZ032>034-039>042-045>050-055>058-069>072-050800-
...CENTRAL MISSOURI...

CITY           SKY/WX    TMP DP  RH WIND       PRES   REMARKS
COLUMBIA       FAIR      69  65  86 SE6       30.04S
JEFFERSON CITY FAIR      69  65  86 SE3       30.03R
ROLLA          FAIR      68  66  93 SE7       30.05R FOG
SEDALIA        FAIR      69  65  86 SE5       30.04R
OSAGE BEACH    FAIR      70  64  83 CALM      30.03S

$$
MOZ051-052-059>065-050800-
...EAST CENTRAL MISSOURI...

CITY           SKY/WX    TMP DP  RH WIND       PRES   REMARKS
ST LOUIS INTL  FAIR      70  62  76 CALM      30.05S HAZE
SPIRIT OF STL  FAIR      65  64  97 CALM      30.04R FOG
ST CHARLES     FAIR      69  66  90 E5        30.04R FOG

$$
MOZ072>076-082>087-097>100-106>115-050800-
...SOUTH CENTRAL AND SOUTHEAST MISSOURI...

CITY           SKY/WX    TMP DP  RH WIND       PRES   REMARKS
CAPE GIRARDEAU FAIR      68  67  96 CALM      30.04R
FARMINGTON     FAIR      66  64  94 CALM      30.10R
POPLAR BLUFF   FAIR      71  69  93 CALM      30.03S FOG
WEST PLAINS    CLOUDY    71  68  90 CALM      30.07S FOG

$$



USA.gov is the U.S. government's official web portal to all federal, state and local government web resources and services.